Regional Weather Roundup
Issued by NWS

Home | Current Version | Previous Version | Graphics & Text | Print | Product List | Glossary On
Versions: 1 2 3 4 5 6 7 8 9 10 11 12 13 14 15 16 17 18 19 20 21 22 23 24 25 26 27 28 29 30 31 32 33 34 35 36 37 38 39 40 41 42 43 44 45 46 47 48 49 50
541
ASUS45 KCYS 291110
RWRWY

WYOMING REGIONAL WEATHER ROUNDUP
NATIONAL WEATHER SERVICE CHEYENNE WY
500 AM MDT WED MAR 29 2017

NOTE:  "FAIR" INDICATES FEW OR NO CLOUDS BELOW 12,000 FEET
WITH NO SIGNIFICANT WEATHER AND/OR OBSTRUCTIONS TO VISIBILITY.

WYZ001-291200-
YELLOWSTONE NATIONAL PARK

CITY           SKY/WX    TMP DP  RH WIND       PRES   REMARKS
LK YELLOWSTONE   N/A     24  21  88 CALM      30.20F
W YELLOWSTONE  NOT AVBL

$$
WYZ002>013-054>058-071-098>099-291200-
NORTHERN WYOMING

CITY           SKY/WX    TMP DP  RH WIND       PRES   REMARKS
JACKSON        FAIR      21  19  93 N7        30.21S WCI  13
CODY           FAIR      39  23  52 NW3       30.11R
GREYBULL       FAIR      32  29  88 CALM      30.12R
WORLAND        FAIR      34  32  92 SE7       30.11S WCI  28
SHERIDAN       FAIR      30  25  81 S3        30.08S
BUFFALO        FAIR      36  24  62 W10       30.10S WCI  28
GILLETTE       FAIR      32  31  96 S6        30.11R WCI  26
HULETT         FAIR      32  32 100 S7        30.12R WCI  26
NEWCASTLE      CLOUDY    37  37 100 CALM      30.13R FOG

$$
WYZ014>020-022>026-101>103-291200-
CENTRAL WYOMING

CITY           SKY/WX    TMP DP  RH WIND       PRES   REMARKS
BIG PINEY      FAIR      26  20  77 NE3       30.18S
PINEDALE       FAIR      27  19  74 NW10      30.18S WCI  17
DUBOIS         FAIR      27  19  74 NW6       30.15S WCI  20
LANDER         FAIR      32  25  75 SW6       30.13R WCI  26
RIVERTON       FAIR      29  27  92 CALM      30.13S
CASPER         FAIR      26  25  96 W6        30.13R WCI  19
DOUGLAS        CLOUDY    37  34  89 NW8       30.13R WCI  31

$$
WYZ021-027>030-104>119-291200-
SOUTHERN WYOMING

CITY           SKY/WX    TMP DP  RH WIND       PRES   REMARKS
EVANSTON       FAIR      27  21  78 S5        30.21S WCI  22
FORT BRIDGER   FAIR      30  25  81 W10       30.23F WCI  21
ROCK SPRINGS   FAIR      28  22  78 SW10      30.17S WCI  19
DIXON            N/A     28  26  89 CALM      30.18R
RAWLINS        FAIR      23  20  88 N3        30.16R
SARATOGA       CLOUDY    32  32 100 CALM      30.15S
LARAMIE        CLOUDY    32  32 100 NW8       30.11R WCI  25
CHEYENNE       CLOUDY    35  33  92 N12       30.09S WCI  27
TORRINGTON     LGT RAIN  38  38 100 CALM      30.12R FOG
PINE BLUFFS    CLOUDY    34  34 100 N8        30.09F WCI  27

$$




USA.gov is the U.S. government's official web portal to all federal, state and local government web resources and services.